Regional Weather Roundup
Issued by NWS

Home | Current Version | Previous Version | Graphics & Text | Print | Product List | Glossary On
Versions: 1 2 3 4 5 6 7 8 9 10 11 12 13 14 15 16 17 18 19 20 21 22 23 24 25 26 27 28 29 30 31 32 33 34 35 36 37 38 39 40 41 42 43 44 45 46 47 48 49 50
000
ASUS45 KBOU 260507
RWRCO

WEATHER ROUNDUP FOR COLORADO
NATIONAL WEATHER SERVICE DENVER/BOULDER CO
1100 PM MDT MON MAY 25 2015

NOTE: "FAIR" INDICATES FEW OR NO CLOUDS BELOW 12000 FEET WITH NO
SIGNIFICANT WEATHER AND/OR OBSTRUCTIONS TO VISIBILITY.

COZ001>005-013-030-031-260600-
...NORTHWEST COLORADO...

CITY           SKY/WX    TMP DP  RH WIND       PRES   REMARKS
CRAIG          MOCLDY   N/A N/A N/A CALM      30.08R
HAYDEN         PTCLDY    45  39  81 E6        30.09S
MEEKER         CLOUDY    50  42  74 CALM      30.09R
MOUNT WERNER   NOT AVBL
STEAMBOAT SPGS MOCLDY    44  41  90 N5        30.10R
WALDEN         CLOUDY    37  34  87 CALM      30.11R
$$

COZ006>008-011-260600-
...WEST CENTRAL VALLEYS...

CITY           SKY/WX    TMP DP  RH WIND       PRES   REMARKS
GRAND JUNCTION PTCLDY    52  46  80 E5        30.01R
MONTROSE       PTCLDY    50  42  74 SE7       30.09R
EAGLE          CLOUDY    48  46  93 CALM      30.13R
RIFLE          RAIN      49  47  93 E5        30.09R
DELTA          PTCLDY    57  45  65 MISG      30.06R
NUCLA          PTCLDY    50  43  76 E9        30.12R
$$

COZ017>023-064>068-260600-
...SOUTHWEST COLORADO...

CITY           SKY/WX    TMP DP  RH WIND       PRES   REMARKS
DURANGO        CLEAR     46  41  82 W5        30.10R
CORTEZ         CLEAR     47  44  90 NE7       30.10R
PAGOSA SPRINGS PTCLDY    42  41  97 CALM      30.15R
TELLURIDE      PTCLDY    39  37  92 SE5       30.23R
WOLF CREEK PAS NOT AVBL
$$

COZ009-010-012-014-032>034-037-058>063-260600-
...CENTRAL COLORADO...

CITY           SKY/WX    TMP DP  RH WIND       PRES   REMARKS
ASPEN          LGT RAIN  42  40  92 SE8       30.15R
BUENA VISTA    PTCLDY    44  34  68 NW8       30.12R
COPPER MTN     SNOW      34  30  86 W17       30.26S VSB<1/4 WCI  23
BERTHOUD PASS  HAZE      27  19  74 NW23G30   30.26F VSB<1/4 WCI  12
COTTONWOOD PAS MOCLDY    43  30  61 NW7       30.19R
GUNNISON       PTCLDY    46  36  66 E5        30.16R
KREMMLING      LGT RAIN  45  36  70 N6        30.14R
LEADVILLE      MOCLDY    35  33  92 N5        30.19R WCI  31
MONARCH PASS     N/A     30  28  93 MISG      30.36S
SALIDA         PTCLDY    48  40  74 SE3       30.17R
SUNLIGHT       SNOW      36  34  93 CALM      30.28R VSB 1/2
WILKERSON PASS PTCLDY    32  28  86 NW9       30.25S WCI  24
$$

COZ069>075-260600-
...SAN LUIS VALLEY/SANGRE DE CRISTO MOUNTAINS...

CITY           SKY/WX    TMP DP  RH WIND       PRES   REMARKS
ALAMOSA        CLOUDY    48  39  71 NE5       30.09R
LA VETA PASS   PTCLDY   N/A N/A N/A MISG      30.18S
SAGUACHE       CLEAR     43  34  70 N8        30.12S
$$

COZ035-036-038>040-260600-
...NORTHERN COLORADO FRONT RANGE...

CITY           SKY/WX    TMP DP  RH WIND       PRES   REMARKS
DENVER INTL AP CLOUDY    52  47  83 SW7       30.02R
DMNS CITY PARK   N/A     50  47  88 S2        30.03S
AURORA         NOT AVBL
FRONT RANGE AP NOT AVBL
ERIE MUNI ARPT MOCLDY    51  48  92 S3        30.01F
BOULDER MUN AP MOCLDY    52  50  93 CALM      30.01S
CENTENNIAL     MOCLDY    48  46  93 SW7       30.04F
BROOMFIELD     NOT AVBL
FORT COLLINS   MOCLDY    48  46  93 CALM      30.02S
LONGMONT       MOCLDY    51  47  87 CALM      30.03S
$$

COZ041-046-047-076>085-087-088-260600-
...PIKES PEAK/PALMER DIVIDE AND SOUTHERN FOOTHILLS...

CITY           SKY/WX    TMP DP  RH WIND       PRES   REMARKS
COLO. SPRINGS  CLOUDY    48  45  89 CALM      30.06S
A. F. ACADEMY  NOT AVBL
ELLICOTT       NOT AVBL
FALCON         CLOUDY    45  43  93 CALM      30.09S
FORT CARSON    LGT RAIN  48  46  93 N12       30.03F
LIMON          LGT RAIN  51  46  83 NW7       30.02S
MONUMENT HILL  NOT AVBL
TRINIDAD       CLEAR     47  44  90 W8        30.00R
$$

COZ042>045-048>051-090-091-260600-
...NORTHEAST COLORADO...

CITY           SKY/WX    TMP DP  RH WIND       PRES   REMARKS
GREELEY ARPT   MOCLDY    48  45  87 CALM      30.00S
AKRON          MOCLDY    49  46  90 W7        29.99R
BURLINGTON     PTCLDY    51  46  83 NW8       29.97R
WRAY           CLOUDY   N/A N/A N/A W7        29.95S
STERLING       PTCLDY    50  46  87 CALM      29.96R
HOLYOKE        NOT AVBL
FORT MORGAN    PTCLDY    49  44  81 W6        30.00R
$$

COZ086-089-092>099-260600-
...SOUTHEAST COLORADO...

CITY           SKY/WX    TMP DP  RH WIND       PRES   REMARKS
PUEBLO         MOCLDY    54  47  77 N14       29.99R
LA JUNTA       MOCLDY    56  50  80 N6        29.95R
LAMAR          NOT AVBL
SPRINGFIELD      N/A     51  47  86 NW7       29.94R
$$



USA.gov is the U.S. government's official web portal to all federal, state and local government web resources and services.